When you browse on this site, cookies collect data to enhance your experience and personalize the content and advertising you see.
Visit our Privacy Policy to learn more. By continuing to use the site, you agree to this use of cookies and data.

Hourly Weather Førde

Today, 8 August, Saturday

Time Temperature Precipitation Wind Pressure Humidity
00:00 +16°C° 0 mm 2 mps 713 mmHg 90%
01:00 +16°C° 0.2 mm 2 mps 712 mmHg 90%
02:00 +16°C° 0.2 mm 2 mps 712 mmHg 89%
03:00 +16°C° 0.2 mm 2 mps 712 mmHg 89%
04:00 +16°C° 0.2 mm 3 mps 712 mmHg 89%
05:00 +16°C° 0.2 mm 3 mps 712 mmHg 89%
06:00 +16°C° 0 mm 3 mps 712 mmHg 87%
07:00 +14°C° 1.8 mm 3 mps 712 mmHg 90%
08:00 +14°C° 1.8 mm 3 mps 712 mmHg 94%
09:00 +13°C° 1.8 mm 3 mps 713 mmHg 97%
10:00 +13°C° 0.8 mm 3 mps 713 mmHg 95%
11:00 +12°C° 0.8 mm 3 mps 713 mmHg 93%
12:00 +13°C° 0 mm 2 mps 714 mmHg 93%
13:00 +13°C° 0.1 mm 2 mps 714 mmHg 88%
14:00 +13°C° 0.1 mm 2 mps 715 mmHg 82%
15:00 +13°C° 0.1 mm 2 mps 715 mmHg 77%
16:00 +13°C° 0 mm 2 mps 715 mmHg 76%
17:00 +13°C° 0 mm 1 mps 715 mmHg 76%
18:00 +12°C° 0 mm 1 mps 715 mmHg 76%
19:00 +11°C° 0 mm 1 mps 715 mmHg 81%
20:00 +9°C° 0 mm 1 mps 715 mmHg 86%
21:00 +8°C° 0 mm 1 mps 715 mmHg 91%
22:00 +8°C° 0 mm 1 mps 715 mmHg 91%
23:00 +7°C° 0 mm 1 mps 716 mmHg 91%

Tomorrow, 9 August, Sunday

Time Temperature Precipitation Wind Pressure Humidity
00:00 +7°C° 0 mm 1 mps 716 mmHg 91%
01:00 +7°C° 0 mm 1 mps 716 mmHg 91%
02:00 +7°C° 0 mm 1 mps 716 mmHg 91%
03:00 +6°C° 0 mm 1 mps 716 mmHg 91%
04:00 +7°C° 0 mm 1 mps 716 mmHg 87%
05:00 +8°C° 0 mm 1 mps 716 mmHg 83%
06:00 +9°C° 0 mm 2 mps 716 mmHg 79%
07:00 +10°C° 0 mm 2 mps 716 mmHg 71%
08:00 +13°C° 0 mm 2 mps 716 mmHg 64%
09:00 +14°C° 0 mm 2 mps 716 mmHg 56%
10:00 +15°C° 0 mm 2 mps 716 mmHg 55%
11:00 +16°C° 0 mm 2 mps 716 mmHg 53%
12:00 +16°C° 0 mm 3 mps 716 mmHg 52%
13:00 +16°C° 0 mm 3 mps 716 mmHg 54%
14:00 +16°C° 0 mm 3 mps 716 mmHg 56%
15:00 +16°C° 0 mm 3 mps 716 mmHg 59%
16:00 +16°C° 0 mm 3 mps 716 mmHg 64%
17:00 +14°C° 0 mm 3 mps 715 mmHg 69%
18:00 +13°C° 0 mm 3 mps 715 mmHg 74%
19:00 +13°C° 0 mm 2 mps 715 mmHg 80%
20:00 +10°C° 0 mm 2 mps 715 mmHg 85%
21:00 +10°C° 0 mm 1 mps 715 mmHg 91%
22:00 +10°C° 0 mm 1 mps 715 mmHg 90%
23:00 +10°C° 0 mm 1 mps 715 mmHg 88%

Day after tomorrow, 10 August, Monday

Time Temperature Precipitation Wind Pressure Humidity
00:00 +9°C° 0 mm 1 mps 715 mmHg 87%
01:00 +9°C° 0 mm 1 mps 715 mmHg 87%
02:00 +8°C° 0 mm 0 mps 714 mmHg 86%
03:00 +8°C° 0 mm 0 mps 714 mmHg 85%
04:00 +10°C° 0 mm 0 mps 714 mmHg 80%
05:00 +11°C° 0 mm 0 mps 714 mmHg 74%
06:00 +13°C° 0 mm 0 mps 715 mmHg 69%
07:00 +14°C° 0 mm 0 mps 715 mmHg 64%
08:00 +16°C° 0 mm 0 mps 715 mmHg 60%
09:00 +17°C° 0 mm 0 mps 716 mmHg 55%
10:00 +20°C° 0 mm 1 mps 715 mmHg 54%
11:00 +20°C° 0 mm 1 mps 715 mmHg 53%
12:00 +21°C° 0 mm 1 mps 715 mmHg 52%
13:00 +21°C° 0 mm 1 mps 715 mmHg 53%
14:00 +21°C° 0 mm 1 mps 715 mmHg 55%
15:00 +20°C° 0 mm 1 mps 715 mmHg 56%
16:00 +20°C° 0 mm 1 mps 715 mmHg 61%
17:00 +19°C° 0 mm 1 mps 715 mmHg 65%
18:00 +18°C° 0 mm 1 mps 715 mmHg 70%
19:00 +15°C° 0 mm 1 mps 715 mmHg 76%
20:00 +12°C° 0 mm 0 mps 715 mmHg 82%
21:00 +11°C° 0 mm 0 mps 715 mmHg 88%
22:00 +10°C° 0 mm 0 mps 715 mmHg 88%
23:00 +10°C° 0 mm 0 mps 715 mmHg 88%

11 August, Tuesday

Time Temperature Precipitation Wind Pressure Humidity
00:00 +10°C° 0 mm 0 mps 715 mmHg 87%
01:00 +10°C° 0 mm 0 mps 715 mmHg 87%
02:00 +10°C° 0 mm 0 mps 715 mmHg 86%
03:00 +11°C° 0 mm 1 mps 715 mmHg 86%
04:00 +13°C° 0 mm 1 mps 716 mmHg 80%
05:00 +13°C° 0 mm 0 mps 716 mmHg 75%
06:00 +15°C° 0 mm 0 mps 716 mmHg 70%
07:00 +16°C° 0 mm 0 mps 716 mmHg 64%
08:00 +17°C° 0 mm 0 mps 716 mmHg 58%
09:00 +19°C° 0 mm 0 mps 717 mmHg 52%
10:00 +19°C° 0 mm 0 mps 717 mmHg 50%
11:00 +22°C° 0 mm 1 mps 717 mmHg 48%
12:00 +23°C° 0 mm 1 mps 717 mmHg 46%
13:00 +23°C° 0 mm 1 mps 717 mmHg 47%
14:00 +22°C° 0 mm 1 mps 717 mmHg 48%
15:00 +22°C° 0 mm 1 mps 716 mmHg 49%
16:00 +22°C° 0 mm 1 mps 716 mmHg 54%
17:00 +21°C° 0 mm 1 mps 716 mmHg 60%
18:00 +20°C° 0 mm 1 mps 716 mmHg 65%
19:00 +18°C° 0 mm 1 mps 715 mmHg 68%
20:00 +16°C° 0 mm 1 mps 715 mmHg 71%
21:00 +14°C° 0 mm 0 mps 715 mmHg 73%
22:00 +14°C° 0 mm 0 mps 715 mmHg 74%
23:00 +14°C° 0 mm 0 mps 715 mmHg 74%

12 August, Wednesday

Time Temperature Precipitation Wind Pressure Humidity
00:00 +14°C° 0 mm 0 mps 715 mmHg 75%
01:00 +15°C° 0 mm 1 mps 715 mmHg 74%
02:00 +15°C° 0 mm 1 mps 714 mmHg 74%
03:00 +15°C° 0 mm 1 mps 714 mmHg 74%
04:00 +15°C° 0 mm 1 mps 714 mmHg 73%
05:00 +16°C° 0 mm 1 mps 714 mmHg 72%
06:00 +18°C° 0 mm 1 mps 714 mmHg 71%
07:00 +19°C° 0 mm 1 mps 714 mmHg 67%
08:00 +19°C° 0 mm 1 mps 714 mmHg 64%
09:00 +20°C° 0 mm 1 mps 714 mmHg 60%
10:00 +20°C° 0 mm 1 mps 714 mmHg 62%
11:00 +20°C° 0 mm 1 mps 714 mmHg 63%
12:00 +19°C° 0 mm 1 mps 713 mmHg 65%
13:00 +19°C° 0.1 mm 1 mps 713 mmHg 70%
14:00 +18°C° 0.1 mm 1 mps 713 mmHg 74%
15:00 +16°C° 0.1 mm 1 mps 713 mmHg 79%
16:00 +16°C° 0.4 mm 1 mps 713 mmHg 82%
17:00 +15°C° 0.4 mm 1 mps 712 mmHg 84%
18:00 +15°C° 0.4 mm 2 mps 712 mmHg 87%
19:00 +15°C° 0.1 mm 2 mps 712 mmHg 86%
20:00 +15°C° 0.1 mm 2 mps 712 mmHg 86%
21:00 +15°C° 0.1 mm 2 mps 712 mmHg 85%
22:00 +15°C° 0.5 mm 1 mps 712 mmHg 85%
23:00 +15°C° 0.5 mm 1 mps 712 mmHg 84%

13 August, Thursday

Time Temperature Precipitation Wind Pressure Humidity
00:00 +15°C° 0.5 mm 1 mps 711 mmHg 84%
01:00 +15°C° 0.9 mm 1 mps 711 mmHg 85%
02:00 +15°C° 0.9 mm 1 mps 711 mmHg 86%
03:00 +15°C° 0.9 mm 1 mps 710 mmHg 87%
04:00 +15°C° 0.8 mm 2 mps 710 mmHg 88%
05:00 +15°C° 0.8 mm 2 mps 710 mmHg 89%
06:00 +15°C° 0.8 mm 2 mps 710 mmHg 90%
07:00 +16°C° 0.4 mm 1 mps 710 mmHg 89%
08:00 +16°C° 0.4 mm 1 mps 710 mmHg 89%
09:00 +18°C° 0.4 mm 1 mps 710 mmHg 88%
10:00 +18°C° 1.1 mm 1 mps 710 mmHg 90%
11:00 +18°C° 1.1 mm 1 mps 710 mmHg 92%
12:00 +18°C° 1.1 mm 1 mps 710 mmHg 94%
13:00 +16°C° 1.8 mm 1 mps 710 mmHg 95%
14:00 +16°C° 1.8 mm 1 mps 710 mmHg 96%
15:00 +16°C° 1.8 mm 1 mps 710 mmHg 98%
16:00 +16°C° 0.6 mm 1 mps 710 mmHg 98%
17:00 +16°C° 0.6 mm 1 mps 710 mmHg 98%
18:00 +15°C° 0.6 mm 1 mps 710 mmHg 98%
19:00 +15°C° 0.2 mm 1 mps 710 mmHg 98%
20:00 +15°C° 0.2 mm 1 mps 710 mmHg 98%
21:00 +15°C° 0.2 mm 1 mps 710 mmHg 98%
22:00 +14°C° 0.1 mm 1 mps 709 mmHg 97%
23:00 +14°C° 0.1 mm 1 mps 709 mmHg 97%
Show more